Location: Powder Track
(41.8531°N, 72.3584°W)
Time: 09:01:42
(UTC+00:00)

Altair - Pass Details

Date: 02 August 2021
Orbit: 1501 x 1682 km, 47.2° (Epoch: 19 September)

Event Time Altitude Azimuth Distance (km) Brightness Sun altitude
Exits shadow 05:32:07 53° 155° (SSE) 1,832 7.5 -29.9°
Maximum altitude 05:32:45 54° 141° (SE) 1,815 7.5 -29.8°
Drops below altitude 10° 05:41:39 10° 67° (ENE) 3,675 9.9 -29.5°
Sets 05:44:43 0° 63° (ENE) 4,647 10.6 -29.4°
